This is the latest recevied weather packets stored in our database for station/object DK9MS-10. If no packets are shown the sender has not sent any weather packets the latest 10 day(s).
| Time | Temp. | Humidity | Pressure | Rain* | Wind** | Luminosity | Snow |
|---|---|---|---|---|---|---|---|
| 1777126347 | 16.11° C | 47% | 1019.5 hPa | - | - | - | - |
| 1777125447 | 16.11° C | 47% | 1019.6 hPa | - | - | - | - |
| 1777124547 | 16.11° C | 49% | 1019.6 hPa | - | - | - | - |
| 1777123647 | 16.11° C | 49% | 1019.8 hPa | - | - | - | - |
| 1777122747 | 16.11° C | 49% | 1019.9 hPa | - | - | - | - |
| 1777121846 | 16.11° C | 48% | 1020.1 hPa | - | - | - | - |
| 1777120946 | 16.11° C | 48% | 1020.3 hPa | - | - | - | - |
| 1777120046 | 16.11° C | 48% | 1020.3 hPa | - | - | - | - |
| 1777119146 | 16.11° C | 48% | 1020.4 hPa | - | - | - | - |
| 1777118246 | 16.11° C | 48% | 1020.5 hPa | - | - | - | - |
| 1777117345 | 16.11° C | 48% | 1020.6 hPa | - | - | - | - |
| 1777116445 | 15.56° C | 48% | 1020.8 hPa | - | - | - | - |
| 1777115545 | 16.11° C | 48% | 1020.8 hPa | - | - | - | - |
| 1777114645 | 16.67° C | 48% | 1020.9 hPa | - | - | - | - |
| 1777113745 | 16.67° C | 48% | 1021 hPa | - | - | - | - |
| 1777112845 | 16.11° C | 49% | 1021.2 hPa | - | - | - | - |
| 1777111944 | 16.11° C | 49% | 1021.3 hPa | - | - | - | - |
| 1777110146 | 15° C | 49% | 1021.1 hPa | - | - | - | - |
| 1777109246 | 15° C | 49% | 1021.2 hPa | - | - | - | - |
| 1777108346 | 15° C | 49% | 1021.1 hPa | - | - | - | - |
| 1777107446 | 15.56° C | 49% | 1021 hPa | - | - | - | - |
| 1777106546 | 15.56° C | 50% | 1021.2 hPa | - | - | - | - |
| 1777105646 | 15.56° C | 49% | 1021.2 hPa | - | - | - | - |
| 1777104746 | 15.56° C | 49% | 1021.2 hPa | - | - | - | - |
| 1777103846 | 15° C | 49% | 1021.3 hPa | - | - | - | - |
* Rain since midnight (hover to see other rain measurements)
** Current wind speed in m/s (hover to see current wind gust speed)